Weather History for KLBR - March, 2013

Change the Weather History Date:

Monday, March 18, 2013

  Actual Average (KPRX) Record (KPRX)
Temperature  
Mean Temperature 60 °F -  
Max Temperature 69 °F 63 °F 82 °F (2011)
Min Temperature 50 °F 43 °F 41 °F (2005)
Degree Days  
Heating Degree Days 6    
Growing Degree Days 10 (Base 50)    
Moisture  
Dew Point 44 °F    
Average Humidity 65    
Maximum Humidity 94    
Minimum Humidity 33    
Precipitation  
Precipitation 0.01 in - - ()
Sea Level Pressure  
Sea Level Pressure 29.83 in    
Wind  
Wind Speed 5 mph (NNW)    
Max Wind Speed 15 mph    
Max Gust Speed 21 mph    
Visibility 8 miles    
Events      
Averages and records for this station are not official NWS values.
T = Trace of Precipitation, MM = Missing Value Source: NWS Daily Summary

Daily Weather History Graph

Daily Weather History Graph

Search for Another Location

Airport or City:

Trip Planner

Search our weather history database for the weather conditions in past years. The results will help you decide how hot, cold, wet, or windy it might be!

Date:

Astronomy

Mar. 18, 2013 Rise Set
Actual Time 7:26 AM CDT 7:30 PM CDT
Civil Twilight 7:01 AM CDT 7:55 PM CDT
Nautical Twilight 6:32 AM CDT 8:24 PM CDT
Astronomical Twilight 6:03 AM CDT 8:53 PM CDT
Moon 11:42 AM CDT (3/18) 1:14 AM CDT (3/18)
Length of Visible Light 12h 53m
Length of Day
12h 04m
Waxing Crescent, 41% of the Moon is Illuminated
Mar 18
Waxing Crescent
Mar 19
First Quarter
Mar 27
Full
Apr 2
Last Quarter
Apr 10
New

Hourly Weather History & Observations

Time (CDT) Temp. Dew Point Humidity Pressure Visibility Wind Dir Wind Speed Gust Speed Precip Events Conditions
12:15 AM 51.8 °F 46.4 °F 82% 29.73 in 7.0 mi NW 3.5 mph - N/A   Clear
12:35 AM 51.8 °F 46.4 °F 82% 29.71 in 10.0 mi Calm Calm - N/A   Clear
12:55 AM 51.8 °F 46.4 °F 82% 29.73 in 7.0 mi Calm Calm - N/A   Clear
1:15 AM 50.0 °F 44.6 °F 82% 29.73 in 10.0 mi Calm Calm - N/A   Scattered Clouds
1:35 AM 51.8 °F 46.4 °F 82% 29.71 in 10.0 mi Calm Calm - N/A   Scattered Clouds
1:55 AM 51.8 °F 46.4 °F 82% 29.69 in 7.0 mi ESE 6.9 mph - N/A   Clear
2:15 AM 51.8 °F 44.6 °F 76% 29.69 in 7.0 mi SE 3.5 mph - N/A   Clear
2:35 AM 51.8 °F 44.6 °F 76% 29.70 in 7.0 mi Calm Calm - N/A   Clear
2:55 AM 51.8 °F 46.4 °F 82% 29.69 in 7.0 mi SE 6.9 mph - N/A   Clear
3:15 AM 51.8 °F 46.4 °F 82% 29.69 in 7.0 mi SSE 4.6 mph - N/A   Clear
3:35 AM 51.8 °F 46.4 °F 82% 29.70 in 7.0 mi Calm Calm - N/A   Clear
3:55 AM 51.8 °F 46.4 °F 82% 29.68 in 10.0 mi SSE 4.6 mph - N/A   Clear
4:15 AM 51.8 °F 46.4 °F 82% 29.67 in 10.0 mi SE 4.6 mph - N/A   Clear
4:35 AM 51.8 °F 46.4 °F 82% 29.66 in 7.0 mi Calm Calm - N/A   Clear
4:55 AM 51.8 °F 46.4 °F 82% 29.67 in 10.0 mi NNE 3.5 mph - N/A   Clear
5:15 AM 51.8 °F 46.4 °F 82% 29.68 in 7.0 mi Calm Calm - N/A   Clear
5:35 AM 51.8 °F 46.4 °F 82% 29.68 in 7.0 mi Calm Calm - N/A   Mostly Cloudy
5:55 AM 53.6 °F 48.2 °F 82% 29.68 in 7.0 mi Calm Calm - N/A   Mostly Cloudy
6:15 AM 53.6 °F 48.2 °F 82% 29.68 in 7.0 mi Calm Calm - N/A   Overcast
6:35 AM 55.4 °F 50.0 °F 82% 29.68 in 10.0 mi ENE 3.5 mph - N/A   Overcast
6:55 AM 53.6 °F 50.0 °F 88% 29.69 in 7.0 mi Calm Calm - N/A   Overcast
7:15 AM 53.6 °F 48.2 °F 82% 29.71 in 7.0 mi NNW 8.1 mph - N/A   Overcast
7:35 AM 53.6 °F 48.2 °F 82% 29.73 in 7.0 mi NNW 8.1 mph - N/A   Overcast
7:55 AM 53.6 °F 48.2 °F 82% 29.76 in 7.0 mi NW 9.2 mph - N/A   Overcast
8:15 AM 53.6 °F 48.2 °F 82% 29.78 in 2.5 mi NNW 10.4 mph - N/A   Overcast
8:35 AM 53.6 °F 50.0 °F 88% 29.79 in 1.8 mi NNW 5.8 mph - N/A   Overcast
8:55 AM 53.6 °F 51.8 °F 94% 29.79 in 1.2 mi NNE 4.6 mph - N/A   Overcast
9:15 AM 53.6 °F 51.8 °F 94% 29.81 in 3.0 mi NW 5.8 mph - N/A   Overcast
9:35 AM 53.6 °F 51.8 °F 94% 29.82 in 1.2 mi NNW 5.8 mph - N/A   Overcast
9:55 AM 53.6 °F 51.8 °F 94% 29.83 in 3.0 mi NNW 6.9 mph - 0.01 in   Overcast
10:15 AM 53.6 °F 51.8 °F 94% 29.83 in 5.0 mi NW 4.6 mph - N/A   Overcast
10:35 AM 53.6 °F 51.8 °F 94% 29.83 in 5.0 mi NNW 5.8 mph - N/A   Overcast
10:55 AM 57.2 °F 51.8 °F 82% 29.83 in 10.0 mi Calm Calm - N/A   Mostly Cloudy
11:15 AM 59.0 °F 51.8 °F 77% 29.84 in 7.0 mi NW 3.5 mph - N/A   Scattered Clouds
11:35 AM 60.8 °F 51.8 °F 72% 29.85 in 10.0 mi NW 9.2 mph - N/A   Scattered Clouds
11:55 AM 62.6 °F 51.8 °F 68% 29.85 in 7.0 mi NW 10.4 mph - N/A   Scattered Clouds
12:15 PM 62.6 °F 50.0 °F 63% 29.85 in 10.0 mi NW 12.7 mph 19.6 mph N/A   Clear
12:35 PM 64.4 °F 48.2 °F 56% 29.86 in 7.0 mi NW 9.2 mph - N/A   Clear
12:55 PM 64.4 °F 46.4 °F 52% 29.86 in 7.0 mi NNW 11.5 mph 19.6 mph N/A   Clear
1:15 PM 64.4 °F 44.6 °F 49% 29.86 in 10.0 mi NW 10.4 mph 18.4 mph N/A   Clear
1:35 PM 64.4 °F 44.6 °F 49% 29.86 in 10.0 mi NW 15.0 mph 19.6 mph N/A   Clear
1:55 PM 64.4 °F 44.6 °F 49% 29.86 in 10.0 mi NW 10.4 mph - N/A   Clear
2:15 PM 66.2 °F 44.6 °F 46% 29.86 in 10.0 mi NNW 9.2 mph 18.4 mph N/A   Clear
2:35 PM 68.0 °F 44.6 °F 43% 29.86 in 10.0 mi NW 8.1 mph 16.1 mph N/A   Clear
2:55 PM 66.2 °F 44.6 °F 46% 29.86 in 10.0 mi North 10.4 mph - N/A   Clear
3:15 PM 68.0 °F 42.8 °F 40% 29.86 in 10.0 mi North 10.4 mph 16.1 mph N/A   Clear
3:35 PM 68.0 °F 42.8 °F 40% 29.86 in 10.0 mi North 10.4 mph 18.4 mph N/A   Clear
3:55 PM 68.0 °F 41.0 °F 37% 29.86 in 10.0 mi NNW 10.4 mph 17.3 mph N/A   Clear
4:15 PM 68.0 °F 42.8 °F 40% 29.86 in 10.0 mi NNE 9.2 mph 16.1 mph N/A   Clear
4:35 PM 68.0 °F 42.8 °F 40% 29.86 in 10.0 mi NNW 6.9 mph - N/A   Clear
4:55 PM 69.8 °F 41.0 °F 35% 29.87 in 10.0 mi North 8.1 mph - N/A   Clear
5:15 PM 68.0 °F 42.8 °F 40% 29.88 in 7.0 mi North 9.2 mph - N/A   Clear
5:35 PM 68.0 °F 37.4 °F 33% 29.90 in 7.0 mi NNW 10.4 mph 20.7 mph N/A   Clear
5:55 PM 68.0 °F 39.2 °F 35% 29.90 in 10.0 mi North 10.4 mph - N/A   Clear
6:15 PM 64.4 °F 39.2 °F 40% 29.91 in 10.0 mi North 10.4 mph 16.1 mph N/A   Clear
6:35 PM 64.4 °F 41.0 °F 42% 29.93 in 10.0 mi North 9.2 mph - N/A   Clear
6:55 PM 62.6 °F 35.6 °F 37% 29.93 in 7.0 mi NNE 8.1 mph - N/A   Clear
7:15 PM 60.8 °F 35.6 °F 39% 29.94 in 10.0 mi North 5.8 mph - N/A   Clear
7:35 PM 60.8 °F 37.4 °F 42% 29.95 in 10.0 mi North 4.6 mph - N/A   Clear
7:55 PM 59.0 °F 37.4 °F 45% 29.95 in 10.0 mi NNW 3.5 mph - N/A   Clear
8:15 PM 57.2 °F 37.4 °F 48% 29.96 in 10.0 mi NNW 4.6 mph - N/A   Clear
8:35 PM 55.4 °F 37.4 °F 51% 29.98 in 10.0 mi NNW 4.6 mph - N/A   Clear
8:55 PM 55.4 °F 37.4 °F 51% 30.00 in 10.0 mi NNW 6.9 mph - N/A   Clear
9:15 PM 55.4 °F 37.4 °F 51% 30.01 in 10.0 mi NNW 6.9 mph - N/A   Clear
9:35 PM 53.6 °F 37.4 °F 54% 30.02 in 10.0 mi NNW 8.1 mph - N/A   Clear
9:55 PM 53.6 °F 37.4 °F 54% 30.03 in 10.0 mi NNW 6.9 mph - N/A   Clear
10:15 PM 53.6 °F 35.6 °F 51% 30.03 in 10.0 mi NNW 4.6 mph - N/A   Clear
10:55 PM 51.8 °F 35.6 °F 54% 30.03 in 10.0 mi North 4.6 mph - N/A   Clear
11:15 PM 50.0 °F 35.6 °F 58% 30.04 in 10.0 mi NNW 3.5 mph - N/A   Clear
11:35 PM 50.0 °F 35.6 °F 58% 30.04 in 10.0 mi North 4.6 mph - N/A   Clear
11:55 PM 50.0 °F 35.6 °F 58% 30.04 in 10.0 mi North 4.6 mph - N/A   Clear